Flag for U.S.A. Weather past 2 weeks in Key West, Florida, U.S.A.

Now
85 °F

Passing clouds.


Feels Like: 94 °F
Forecast: 84 / 90 °F
Wind: 8 mph from Southeast

Location: Key West International Airport

Current Time: Aug 5, 2015 at 12:30:17 AM

Latest Report: Aug 4, 2015 at 11:53 PM


Visibility: 10 mi

Pressure: 30.09 "Hg

Humidity: 75%

Dew point: 76 °F

Location of Key WestLocation

Historic Weather in Key West — Graph

°F

Key West temperature yesterday

Maximum temperature yesterday: 90 °F (at 2:53 PM)
Minimum temperature yesterday: 82 °F (at 12:53 AM)
Average temperature yesterday: 86 °F

Past Weeks' High & Low Weather Summary

 TemperatureHumidityPressure
High94 °F (Jul 28, 3:53 PM)97% (Aug 3, 6:55 PM)30.09 "Hg (Aug 3, 6:55 PM)
Low74 °F (Aug 3, 6:55 PM)44% (Jul 28, 3:53 PM)29.90 "Hg (Jul 26, 4:53 AM)
Average86 °F72%30.01 "Hg
* Reported Jul 20 10:53 PM — Aug 4 10:53 PM, Key West, Weather by CustomWeather, © 2015

Note: Actual official high and low records may vary slightly from our data, if they occured in-between our weather recording intervals... More about our weather records

Advertising

Key West weather history for previous 24 hours

 ConditionsComfort  
Time TempWeatherWind HumidityBarometerVisibility
10:53 PM
Tue, Aug 4
85 °FClear.8 mph75%30.09 "Hg10 mi
9:53 PM85 °FPassing clouds.12 mph80%30.08 "Hg10 mi
8:53 PM86 °FPassing clouds.8 mph70%30.06 "Hg10 mi
7:53 PM86 °FSunny.10 mph70%30.06 "Hg10 mi
6:53 PM88 °FSunny.7 mph65%30.05 "Hg10 mi
5:53 PM89 °FSunny.10 mph65%30.04 "Hg10 mi
4:53 PM90 °FSunny.12 mph66%30.04 "Hg10 mi
3:53 PM89 °FSunny.9 mph65%30.03 "Hg10 mi
2:53 PM90 °FSunny.9 mph61%30.04 "Hg10 mi
1:53 PM89 °FSunny.8 mph63%30.06 "Hg10 mi
12:53 PM89 °FSunny.8 mph65%30.07 "Hg10 mi
11:53 AM89 °FSunny.8 mph68%30.06 "Hg10 mi
10:53 AM87 °FSunny.8 mph69%30.06 "Hg10 mi
9:53 AM86 °FSunny.8 mph70%30.05 "Hg10 mi
8:53 AM85 °FBroken clouds.9 mph75%30.03 "Hg10 mi
7:53 AM84 °FClear.6 mph72%30.02 "Hg10 mi
6:53 AM83 °FPassing clouds.7 mph74%30.02 "Hg10 mi
5:53 AM83 °FPassing clouds.9 mph72%30.00 "Hg10 mi
4:53 AM82 °FPassing clouds.3 mph82%29.99 "Hg10 mi
3:53 AM82 °FPassing clouds.7 mph79%29.99 "Hg10 mi
2:53 AM82 °FPassing clouds.5 mph79%30.01 "Hg10 mi
1:53 AM82 °FClear.9 mph77%30.01 "Hg10 mi
12:53 AM82 °FClear.5 mph82%30.02 "Hg10 mi
Weather by CustomWeather, © 2015

See weather overviewHow to use our weather pages